741  
ASUS41 KAKQ 021617  
RWRAKQ  
 
REGIONAL WEATHER ROUNDUP  
NATIONAL WEATHER SERVICE WAKEFIELD VA  
1200 PM EDT THU JUL 02 2020  
 
NOTE: "FAIR" INDICATES FEW OR NO CLOUDS BELOW 12,000 FEET WITH NO  
SIGNIFICANT WEATHER AND/OR S TO VISIBILITY
. * = DENOTES  
STATION MAY NOT REPORT PRECIPITATION (E.G., RAIN,SNOW,ETC.),
 
THUNDER OR FOG.  
 
VAZ042-051-052>054-056-021700-  
NORTHERN VIRGINIA  
 
CITY SKY/WX TMP DP RH WIND PRES REMARKS
 
WASH NATIONAL MOSUNNY 88 63 43 NE12 29.91S  
DULLES MOSUNNY 84 63 49 N13G18 29.93R  
FORT BELVOIR MOSUNNY 86 63 45 NW12 29.91S  
QUANTICO MOSUNNY 86 62 44 N9 29.92R  
FREDERICKSBRG* MOSUNNY 85 65 49 N8 29.91S  
STAFFORD* SUNNY 88 61 40 NW8 29.96S  
WARRENTON SUNNY 85 60 42 NW10 29.93S  
CULPEPER* SUNNY 84 63 49 N8 29.95R  
MANASSAS* MOSUNNY 85 65 51 VRB5 29.93S  
LEESBURG* MOSUNNY 82 66 57 N8 29.95S  
WINCHESTER MOSUNNY 81 63 54 N8 29.95S  
FRONT ROYAL* FAIR 82 64 54 NE12 29.96S  
LURAY* FAIR 82 59 44 N9 29.98R  

 
 
VAZ048-049-060>072-079>083-021700-  
CENTRAL AND SOUTH CENTRAL VIRGINIA  
 
CITY SKY/WX TMP DP RH WIND PRES REMARKS
 
RICHMOND MOSUNNY 85 67 54 NE9 29.91S  
CHESTERFIELD* FAIR 84 66 54 VRB7 29.93R  
PETERSBURG* MOSUNNY 85 63 47 N13G18 29.93S  
HANOVER SUNNY 86 67 52 N5 29.93S  
TAPPAHANNOCK* MOSUNNY 84 68 57 NW5 29.92S  
QUINTON* FAIR 84 67 56 NE6 29.91S  
CHARLOTTSVILLE MOSUNNY 87 65 47 NW5 29.95S  
GORDONSVILLE* FAIR 83 64 54 N8 29.95S  
ORANGE* MOSUNNY 82 64 54 N9 29.95R  
LOUISA* PTSUNNY 82 65 57 N9 29.99R  
BUMPASS* FAIR 83 63 51 N3 29.94S  
FARMVILLE* MOSUNNY 84 66 54 N3 29.94S  
CREWE* FAIR 82 58 44 N7 29.94S  
FORT PICKETT* NOT AVBL  
CHASE CITY* PTSUNNY 82 67 61 N5 29.95S  
CLARKSVILLE* FAIR 82 68 61 NE5 29.94S  
SOUTH HILL* N/A 83 64 52 N8 29.99S  
LAWRENCEVILLE* FAIR 83 67 57 NE7 29.94S  
EMPORIA* SUNNY 82 69 63 NW8 29.94S  

 
 
VAZ088>098-021700-  
SOUTHEAST VIRGINIA  
 
CITY SKY/WX TMP DP RH WIND PRES REMARKS
 
NORFOLK MOSUNNY 83 72 69 N8 29.90S  
VIRGINIA BEACH MOSUNNY 81 70 69 NE9 29.89S  
NORFOLK NAVAL MOSUNNY 83 72 69 N10 29.92R  
WEST POINT* MOSUNNY 84 67 56 N6 29.91S  
SALUDA* FAIR 83 69 61 NW6 29.89F  
NEWPORT NEWS PTSUNNY 85 69 58 VRB3 29.91S  
LANGLEY AFB MOSUNNY 82 73 72 NE9 29.91S  
FORT EUSTIS MOSUNNY 83 72 67 NW5 29.88F  
WILLIAMSBURG* N/A N/A N/A N/A MISG 29.90S  
HR EXEC AP* FAIR N/A N/A N/A VRB6 29.91S  
FRANKLIN* PTSUNNY 81 69 66 N6 29.92R  
US460-WAKEFLD SUNNY 83 67 58 VRB5 29.91S  

 
 
VAZ020-022-025-037-045-021700-  
WEST CENTRAL AND SOUTHWEST VIRGINIA  
 
CITY SKY/WX TMP DP RH WIND PRES REMARKS
 
STAUNTON* PTSUNNY 81 64 56 NE6 30.01S  
WAYNESBORO* FAIR 79 62 55 N9 30.01S  
HOT SPRINGS VA CLOUDY 72 59 65 CALM 30.14R  
LYNCHBURG SUNNY 84 65 52 N8 29.98S  
DANVILLE MOSUNNY 84 67 56 N10 29.96S  
SOUTH BOSTON* FAIR 83 65 54 NE3 29.95F  
MARTINSVILLE SUNNY 83 67 59 NE6 30.01S  
ROANOKE MOSUNNY 86 63 45 NE8 30.01S  
BLACKSBURG PTSUNNY 79 65 60 CALM 30.08R  
DUBLIN* PTSUNNY 81 65 58 CALM 30.06S  
MARION* PTSUNNY 79 65 61 CALM 30.09S  
HILLSVILLE* PTSUNNY 76 61 59 N8 30.06S  
RICHLANDS* FAIR 74 59 58 NE5 30.09S  
WISE* MOSUNNY 79 59 50 N9 30.10S  
ABINGDON* PTSUNNY 79 60 52 E8 30.05F  

 
 
MDZ021>025-VAZ099-100-021700-  
SOUTHERN MARYLAND AND THE DELMARVA PENINSULA  
 
CITY SKY/WX TMP DP RH WIND PRES REMARKS
 
PATUXENT RIVER MOSUNNY 85 69 58 N12 29.90R  
BAY BRIDGE APT SUNNY 82 70 65 N7 29.90S  
LEONARDTOWN SUNNY 81 64 57 NW3 29.92R  
DOVER SUNNY 83 65 54 N8 29.88S  
GEORGETOWN MOSUNNY 86 69 56 N9 29.88F  
EASTON MOSUNNY 82 70 65 N6 29.93S  
CAMBRIDGE MOSUNNY 84 68 58 N8 29.89S  
SALISBURY MOSUNNY 86 67 52 N10 29.88S  
TANGIER FAIR 84 69 61 N9 29.89S  
OCEAN CITY SUNNY 80 71 74 E8 29.88S  
WALLOPS ISLAND PTSUNNY 83 68 60 E6 29.88F  
ACCOMACK* MOSUNNY N/A N/A N/A NE8 29.89S  

 
 
NCZ012>017-030>032-021700-  
NORTH CENTRAL AND EASTERN NORTH CAROLINA  
 
CITY SKY/WX TMP DP RH WIND PRES REMARKS
 
ROANOKE RAPIDS FAIR 81 72 74 N6 29.92F  
RALEIGH MOSUNNY 84 68 58 NE12 29.94S  
ELIZABETH CITY MOSUNNY 84 73 69 N7 29.89S  
AHOSKIE* PTSUNNY 81 69 65 N7 29.91F  
EDENTON* MOSUNNY 82 73 76 N10 29.91S  
CURRITUCK* MOSUNNY 81 71 73 N12G17 29.88F  
KILL DEVIL HLS SUNNY 78 69 75 N9 29.88S  
MANTEO SUNNY 80 71 73 NE12 29.89S  
CAPE HATTERAS MOSUNNY 83 72 69 VRB5 29.88R  
TARBORO* FAIR 83 69 62 NE8 29.91F  
GOLDSBORO SUNNY 83 71 66 NE7 29.90S  
WASHINGTON SUNNY 82 69 64 N7 29.91S  
GREENVILLE MOSUNNY 82 70 65 NE8 29.93F  
NEW BERN MOSUNNY 78 71 79 CALM 29.91S  
WILMINGTON PTSUNNY 85 73 67 NE14 29.88S  

 
 
VAZ048-021700-  
ELSEWHERE  
 
CITY SKY/WX TMP DP RH WIND PRES REMARKS
 
HARRISBURG PA MOSUNNY 85 63 47 N8 29.91S  
BALTIMORE MOSUNNY 86 63 45 VRB6 29.90S  
ANNAPOLIS MOSUNNY 83 67 58 VRB3 29.90S  
ANDREWS AFB SUNNY 84 63 48 VRB2 29.93  
PHILADELPHIA MOSUNNY 87 62 43 N10 29.87F  
HENDERSON NC MOSUNNY 80 64 58 NE9 29.94F  
GREENSBORO MOSUNNY 84 68 58 NE12 29.96S  
ROCKY MOUNT MOSUNNY 84 70 62 E5 29.92F  

 
 
VAZ100-021700-  
MARINE  
 
STATION/POSITION TIME TEMP WIND PRES WAVE SWELL
 
AIR SEA DIR/SP/G HT/PER HT/PER  
(UTC) (F) (DEG/KT/KT) (MB) (FT/S) (FT/S)  
CAPE MAY NJ 1530 78 75 300/ 8/ 11 1011.6S  
LEWES DE 1530 75 74 330/ 7/ 8 1012.2S  
15NM E FENWICK I 1550 N/A 3/ 9  
OCEAN-CITY-INLET 1530 77 75 90/ 8/ 10 1012.8S  
WACHAPREAGUE VA 1530 79 81 80/ 5/ 7 1012.1R  
THOMAS POINT MD 1600 78 80 10/ 9/ 10 1013.5R  
GOOSES REEF MD 1554 78 80 360/ 8/ 8 N/A  
COVE POINT MD 1500 1012.8  
SOLOMONS ISLAND 1530 80 80 350/ 8/ 11 1012.2R  
BISHOPS HEAD MD 1530 82 82 40/ 6/ 7 1011.9F  
PINEY POINT MD 1524 290/ 4/ 6 N/A  
CAMBRIDGE MD 1530 81 82 320/ 9/ 11 1012.0F  
LEWISETTA VA 1530 79 80 130/ 5/ 6 1012.4S  
RAPPAHANNOCK LGT 1524 360/ 9/ 11 1012.8  
STINGRAY PT 1554 81 10/ 8/ 8 1015.8F  
YORK RVR RNG VA 1524 79 70/ 8/ 10 1013.2  
YORKTOWN VA 1524 80 78 70/ 7/ 10 1012.2  
DOMINION TERM VA 1524 81 40/ 2/ 5 1012.9  
KIPTOPEKE VA 1524 77 60/ 4/ 10 N/A  
CAPE HENRY VA 1524 76 30/ 9/ 9 1012.8  
WILLOUBY STN VA 1506 77 40/ 11/ 12 N/A  
S CRANEY ISL VA 1524 79 30/ 8/ 12 1012.3  
64NM E OF VA BCH 1550 75 75 30/ 8/ 10 1011.6R 3/ 8 3/ 8  
DUCK PIER NC 1524 75 350/ 11/ 12 1011.7  
44100 DUCK FRF 1556 78 N/A 3/10  
44056 DUCK FRF 1556 76 N/A 2/ 9  
OREGON INLET NC 1524 77 80 350/ 11/ 15 1011.7  
HATTERAS NC 1524 78 82 350/ 6/ 8 1011.8  
DIAMOND SHLS NC 1550 77 350/ 8/ 12 N/A 3/ 9  
CAPE LOOKOUT NC 1600 80 340/ 7/ 8 1011.9R  

 
 
 
CLICK HERE TO GO TO PREVIOUS BULLETINS.

The Nexlab VA Page
The Nexlab NC Page
The Nexlab MD Page Main Text Page